Regional Weather Roundup
Issued by NWS Albany, NY

Home | Current Version | Previous Version | Graphics & Text | Print | Product List | Glossary On
Versions: 1 2 3 4 5 6 7 8 9 10 11 12 13 14 15 16 17 18 19 20 21 22 23 24 25 26 27
000
ASUS41 KALY 252210
RWRALY

NEW YORK STATE HOURLY WEATHER ROUNDUP
NATIONAL WEATHER SERVICE ALBANY NY
600 PM EDT SAT MAR 25 2017

NOTE: "FAIR" INDICATES FEW OR NO CLOUDS BELOW 12,000 FEET WITH NO
SIGNIFICANT WEATHER AND/OR NO OBSTRUCTIONS TO VISIBILITY.

NYZ032-033-038>043-046>054-057>066-NYZ062>081-082-084-252300-
EAST


CITY           SKY/WX    TMP DP  RH WIND       PRES   REMARKS
ALBANY         CLOUDY    38  32  79 N5        30.35R WCI  34
GLENS FALLS    CLOUDY    38  29  70 NE10      30.36R WCI  31
POUGHKEEPSIE   PTSUNNY   37  35  92 N7        30.30R WCI  32
NEWBURGH       CLOUDY    37  37 100 NE9       30.29S FOG     WCI  31
MONTGOMERY     LGT RAIN  39  36  89 NE8       30.28R WCI  33
WHITE PLAINS   LGT RAIN  48  39  71 SE3       30.25F
ISLIP          CLOUDY    46  39  76 NE9       30.28S
NEW YORK CITY  CLOUDY    50  38  63 E8        30.27R
CENTRAL PARK   CLOUDY    49  39  68 NE5       30.30R
$$

NYZ005>009-017-018-044>046-055-056-252300-
CENTRAL


CITY           SKY/WX    TMP DP  RH WIND       PRES   REMARKS
FULTON         CLOUDY    39  31  72 N9        30.34S WCI  33
SYRACUSE       CLOUDY    38  36  92 W3        30.33S
ROME           CLOUDY    40  35  83 N5        30.35R
ELMIRA         LGT RAIN  37  33  85 NE8       30.31R WCI  31
BINGHAMTON     CLOUDY    36  35  96 NE6       30.25S WCI  31
MONTICELLO     CLOUDY    37  37 100 N7        30.27R WCI  32
$$

NYZ026>034-041>043-087-252300-
NORTH


CITY           SKY/WX    TMP DP  RH WIND       PRES   REMARKS
WATERTOWN      CLOUDY    36  31  82 NE13      30.37S WCI  27
FORT DRUM      NOT AVBL
MASSENA        MOSUNNY   36  27  69 CALM      30.43R
SARANAC LAKE   CLOUDY    31  28  89 CALM      30.31R
PLATTSBURGH    SUNNY     33  19  56 NE9       30.41R WCI  25
$$

NYZ001>004-010>016-019>021-085-252300-
WEST


CITY           SKY/WX    TMP DP  RH WIND       PRES   REMARKS
NIAGARA FALLS  CLOUDY    38  32  79 E17G25    30.32S WCI  28
BUFFALO        CLOUDY    37  33  85 NE14      30.31S WCI  28
DUNKIRK        CLOUDY    39  37  92 NE13      30.25F WCI  31
JAMESTOWN      CLOUDY    45  39  81 NE10      30.21R
WELLSVILLE     CLOUDY    41  37  86 NE8       30.25S
ROCHESTER      CLOUDY    37  32  82 E9        30.36R WCI  30
PENN YAN       CLOUDY    35  32  88 VRB5      30.32S FOG     WCI  31
$$

             KEY
       WCI = WIND CHILL INDEX
       VSB = VISIBILITY
       HX  = HEAT INDEX
$$




USA.gov is the U.S. government's official web portal to all federal, state and local government web resources and services.